Location: Bon Acre
(42.6442°N, 73.5758°W)
Time: 02:14:17
(UTC+00:00)

SL-08 R/B - Pass Details

Date: 17 March 2026
Orbit: 946 x 992 km, 83.0° (Epoch: 13 April)

Event Time Altitude Azimuth Distance (km) Brightness Sun altitude
Exits shadow 01:25:49 69° 109° (ESE) 1,012 4.3 -26.5°
Maximum altitude 01:26:01 69° 94° (E) 1,009 4.3 -26.5°
Drops below altitude 10° 01:32:05 10° 12° (NNE) 2,675 6.9 -27.5°
Sets 01:34:35 0° 11° (N) 3,625 7.7 -28.0°
